GW4745 Weather Reports


time (UTC)temp
C
wind
direction
speed
KPH
gust
KPH
rain 1hr
cm
rain 24hr
cm
rain mn
cm
humidity
%
barometer
mb
20260508144557 16 150 6.4 9.7 0.00 0.20 0.00 49 1018.5
20260508143105 15 150 1.6 4.8 0.00 0.20 0.00 54 1018.4
20260508141610 15 150 3.2 11.3 0.00 0.20 0.00 53 1018.3
20260508140058 14 150 1.6 4.8 0.00 0.20 0.00 54 1018.3
20260508134559 14 150 3.2 6.4 0.00 0.20 0.00 54 1018.3
20260508133101 13 150 4.8 9.7 0.00 0.20 0.00 56 1018.4
20260508131558 13 150 1.6 8.0 0.00 0.20 0.00 59 1018.1
20260508124558 12 150 0.0 3.2 0.00 0.46 0.00 70 1017.9
20260508123057 11 150 0.0 4.8 0.00 0.46 0.00 74 1017.9
20260508121607 10 150 0.0 4.8 0.00 0.46 0.00 77 1017.9
20260508120057 9 150 0.0 3.2 0.00 0.46 0.00 82 1017.5
20260508114559 8 150 1.6 6.4 0.00 0.64 0.00 84 1017.4
20260508113107 8 150 0.0 3.2 0.00 0.64 0.00 86 1017.0
20260508111609 7 150 0.0 1.6 0.00 0.64 0.00 88 1017.0
20260508104558 6 150 0.0 3.2 0.00 0.64 0.00 94 1016.5
20260508103112 6 150 1.6 4.8 0.00 0.64 0.00 94 1016.2
20260508101559 6 150 0.0 3.2 0.00 0.64 0.00 95 1016.1
20260508100058 6 150 1.6 4.8 0.00 0.64 0.00 95 1016.0
20260508094609 6 0 0.0 0.0 0.00 0.64 0.00 94 1015.8
20260508093059 6 150 0.0 4.8 0.00 0.64 0.00 94 1015.7
20260508091605 6 150 1.6 4.8 0.00 0.64 0.00 94 1015.7
20260508090058 6 0 0.0 0.0 0.00 0.64 0.00 94 1015.5
20260508084559 6 0 0.0 0.0 0.00 0.66 0.00 93 1015.4
20260508083144 6 0 0.0 1.6 0.00 0.66 0.00 94 1015.4
20260508081603 6 0 0.0 0.0 0.00 0.66 0.00 94 1015.3
20260508074600 7 0 0.0 0.0 0.00 0.66 0.00 93 1015.0
20260508073100 7 0 0.0 0.0 0.00 0.66 0.00 93 1015.0
20260508071558 7 150 0.0 0.0 0.00 0.66 0.00 93 1014.9
20260508070100 7 0 0.0 1.6 0.00 0.66 0.00 93 1014.8
20260508064609 7 150 0.0 1.6 0.00 0.66 0.00 93 1014.8
20260508063058 7 0 0.0 0.0 0.00 0.66 0.00 93 1014.7
20260508061603 7 0 0.0 0.0 0.00 0.66 0.00 93 1014.5
20260508060107 7 0 0.0 0.0 0.00 0.66 0.00 93 1014.7
20260508054605 7 0 0.0 0.0 0.00 0.71 0.00 92 1014.6
20260508053105 7 0 0.0 0.0 0.00 0.71 0.00 92 1014.5
20260508051557 8 0 0.0 0.0 0.00 0.71 0.00 91 1014.5
20260508050100 8 0 0.0 0.0 0.00 0.71 0.00 91 1014.3
20260508044559 8 0 0.0 0.0 0.00 0.79 0.00 91 1014.2
20260508043059 8 0 0.0 0.0 0.00 0.79 0.00 90 1014.3
20260508041604 8 0 0.0 0.0 0.00 0.79 0.00 89 1014.1
20260508040113 9 0 0.0 8.0 0.00 0.79 0.00 88 1014.2
20260508034558 9 0 0.0 0.0 0.00 0.79 0.79 87 1014.1
20260508033102 10 0 0.0 0.0 0.00 0.79 0.79 87 1014.1
20260508031604 10 0 0.0 0.0 0.00 0.79 0.79 86 1014.0
20260508030122 10 150 1.6 1.6 0.00 0.79 0.79 87 1014.0
20260508024605 10 0 0.0 0.0 0.00 0.91 0.79 86 1013.7
20260508023100 11 0 0.0 0.0 0.00 0.91 0.79 84 1013.6
20260508021600 11 0 0.0 1.6 0.00 0.91 0.79 82 1013.5
20260508020058 11 0 0.0 0.0 0.00 0.91 0.79 80 1013.2
20260508014557 12 0 0.0 0.0 0.00 0.99 0.79 77 1012.8
20260508013058 12 0 0.0 0.0 0.00 0.99 0.79 75 1012.7
20260508011610 13 0 0.0 0.0 0.00 0.99 0.79 71 1012.3
20260508010107 14 0 0.0 3.2 0.00 0.99 0.79 68 1012.2
20260508004604 14 150 1.6 8.0 0.00 1.12 0.79 66 1011.8
20260508003111 15 150 3.2 9.7 0.00 1.12 0.79 66 1011.7
20260508001557 15 150 3.2 9.7 0.00 1.12 0.79 65 1011.5
20260508000057 16 150 4.8 16.1 0.00 1.12 0.79 64 1011.6
20260507234559 16 150 4.8 19.3 0.00 1.14 0.79 68 1011.4
20260507233059 16 150 3.2 8.0 0.00 1.14 0.79 78 1011.3
20260507231613 16 150 0.0 6.4 0.00 1.14 0.79 85 1011.0
20260507230059 16 0 3.2 8.0 0.00 1.14 0.79 85 1010.8
20260507224607 16 150 3.2 11.3 0.00 1.14 0.79 84 1010.4
20260507223100 17 150 3.2 11.3 0.00 1.14 0.79 84 1010.1
20260507221600 17 150 6.4 16.1 0.00 1.14 0.79 83 1010.0
20260507220101 17 150 11.3 19.3 0.00 1.14 0.79 83 1009.6
20260507214610 16 150 8.0 19.3 0.00 1.14 0.79 86 1009.6
20260507213109 16 150 8.0 17.7 0.00 1.14 0.79 85 1009.4
20260507211558 16 150 6.4 17.7 0.00 1.14 0.79 87 1009.4
20260507210100 16 150 9.7 25.7 0.00 1.14 0.79 86 1009.3
20260507204607 16 150 12.9 25.7 0.00 1.14 0.79 86 1009.1
20260507203100 16 150 9.7 29.0 0.00 1.14 0.79 86 1008.9
20260507201610 17 150 12.9 24.1 0.00 1.14 0.79 88 1008.6
20260507200058 17 150 16.1 29.0 0.03 1.14 0.79 89 1008.8
20260507194558 17 150 8.0 24.1 0.18 1.14 0.79 91 1008.5
20260507193110 17 150 8.0 20.9 0.20 1.14 0.79 90 1008.7
20260507191609 18 150 11.3 25.7 0.20 1.14 0.79 88 1008.7
20260507190104 21 0 0.0 8.0 0.18 1.12 0.76 81 1008.0
20260507184559 22 150 1.6 16.1 0.03 0.97 0.61 76 1008.1
20260507183100 22 150 11.3 16.1 0.00 0.94 0.58 74 1007.9
20260507181557 22 150 6.4 19.3 0.00 0.94 0.58 75 1008.3
20260507180105 22 150 9.7 17.7 0.00 0.94 0.58 72 1008.3
20260507174559 22 150 4.8 16.1 0.00 0.97 0.58 75 1008.4
20260507173058 21 150 6.4 14.5 0.00 0.97 0.58 78 1008.4
20260507171604 21 150 4.8 17.7 0.00 0.97 0.58 75 1008.6
20260507170100 21 150 6.4 17.7 0.00 0.97 0.58 77 1008.8
20260507164559 21 150 8.0 12.9 0.00 1.02 0.58 80 1009.2
20260507163057 20 0 1.6 9.7 0.00 1.02 0.58 82 1009.3
20260507161605 20 150 3.2 8.0 0.00 1.02 0.58 85 1009.5
20260507160104 19 150 1.6 4.8 0.00 1.02 0.58 87 1009.2
20260507154559 18 0 0.0 3.2 0.00 1.07 0.58 90 1009.0
20260507153100 18 150 4.8 11.3 0.00 1.07 0.58 91 1009.2
20260507151656 18 150 4.8 11.3 0.00 1.07 0.58 93 1009.7
20260507150100 18 150 0.0 8.0 0.00 1.07 0.58 95 1009.6